QPF
0.01 0.03 0.00 0.00 0.00 0.00 0.00 0.00 0.00 0.00 0.00 0.00 0.00 0.00 0.00 0.00 0.00 0.00 0.00 0.00 0.00 0.00 0.00 0.00 0.00 0.00 0.00 0.00 0.00 0.00 0.00 0.00 0.00 0.00 0.00 0.00 0.00 0.00 0.00 0.00 0.00 0.00 0.00
0.00 0.03 0.00 0.00 0.00 0.00 0.00 0.00 0.00 0.00 0.00 0.00 0.00 0.00 0.00 0.00 0.00 0.00 0.00 0.00 0.00 0.00 0.00 0.00 0.00 0.00 0.00 0.00 0.00 0.00 0.00 0.00 0.00 0.00 0.00 0.00 0.00 0.00 0.00 0.00 0.00 0.00 0.00
0.01 0.04 0.02 0.00 0.00 0.00 0.00 0.00 0.00 0.00 0.00 0.00 0.00 0.00 0.00 0.00 0.00 0.00 0.00 0.00 0.00 0.00 0.00 0.00 0.00 0.00 0.00 0.00 0.00 0.00 0.00 0.00 0.00 0.00 0.00 0.00 0.00 0.00 0.00 0.00 0.00 0.00 0.00
0.01 0.06 0.10 0.00 0.00 0.00 0.00 0.00 0.00 0.00 0.00 0.00 0.00 0.00 0.00 0.00 0.00 0.00 0.00 0.00 0.00 0.00 0.00 0.00 0.00 0.00 0.00 0.00 0.00 0.00 0.00 0.00 0.00 0.00 0.00 0.00 0.00 0.00 0.00 0.00 0.00 0.00 0.00
0.02 0.03 0.02 0.00 0.00 0.00 0.00 0.00 0.00 0.00 0.00 0.00 0.00 0.00 0.00 0.00 0.00 0.00 0.00 0.00 0.00 0.00 0.00 0.00 0.00 0.00 0.00 0.00 0.00 0.00 0.00 0.00 0.00 0.00 0.00 0.00 0.00 0.00 0.00 0.00 0.00 0.00 0.00
0.06 0.01 0.00 0.01 0.00 0.00 0.00 0.00 0.00 0.00 0.00 0.00 0.00 0.00 0.00 0.00 0.00 0.00 0.00 0.00 0.00 0.00 0.00 0.00 0.00 0.00 0.00 0.00 0.00 0.00 0.00 0.00 0.00 0.00 0.00 0.00 0.00 0.00 0.00 0.00 0.00 0.00 0.00
0.16 0.16 0.02 0.10 0.03 0.00 0.00 0.00 0.00 0.00 0.00 0.00 0.00 0.00 0.00 0.00 0.00 0.00 0.00 0.00 0.00 0.00 0.00 0.00 0.00 0.00 0.00 0.00 0.00 0.00 0.00 0.00 0.00 0.00 0.00 0.00 0.00 0.00 0.00 0.00 0.00 0.00 0.00
0.14 0.24 0.17 0.15 0.12 0.04 0.00 0.00 0.00 0.00 0.00 0.00 0.00 0.00 0.00 0.00 0.00 0.00 0.00 0.00 0.00 0.00 0.00 0.00 0.00 0.00 0.00 0.00 0.00 0.00 0.00 0.00 0.00 0.00 0.00 0.00 0.00 0.00 0.00 0.00 0.00 0.00 0.00
0.28 0.32 0.31 0.20 0.17 0.09 0.05 0.00 0.00 0.00 0.00 0.00 0.00 0.00 0.00 0.00 0.00 0.00 0.00 0.00 0.00 0.00 0.00 0.00 0.00 0.00 0.00 0.00 0.00 0.00 0.00 0.00 0.00 0.00 0.00 0.00 0.00 0.00 0.00 0.00 0.00 0.00 0.00
0.17 0.39 0.18 0.16 0.13 0.05 0.03 0.01 0.00 0.00 0.00 0.00 0.00 0.00 0.00 0.00 0.00 0.00 0.00 0.00 0.00 0.00 0.00 0.00 0.00 0.00 0.00 0.00 0.00 0.00 0.00 0.00 0.00 0.00 0.00 0.00 0.00 0.00 0.00 0.00 0.00 0.00 0.00
0.09 0.09 0.10 0.10 0.10 0.03 0.03 0.04 0.00 0.00 0.00 0.00 0.00 0.00 0.00 0.00 0.00 0.00 0.00 0.00 0.00 0.00 0.00 0.00 0.00 0.00 0.00 0.00 0.00 0.00 0.00 0.00 0.00 0.00 0.00 0.00 0.00 0.00 0.00 0.00 0.00 0.00 0.00
0.03 0.06 0.05 0.07 0.03 0.02 0.01 0.02 0.00 0.00 0.00 0.00 0.00 0.00 0.00 0.00 0.00 0.00 0.00 0.00 0.00 0.00 0.00 0.00 0.00 0.00 0.00 0.00 0.00 0.00 0.00 0.00 0.00 0.00 0.00 0.00 0.00 0.00 0.00 0.00 0.00 0.00 0.00
0.00 0.01 0.02 0.01 0.01 0.01 0.01 0.01 0.00 0.00 0.00 0.00 0.00 0.00 0.00 0.00 0.00 0.00 0.00 0.00 0.00 0.00 0.00 0.00 0.00 0.00 0.00 0.00 0.00 0.00 0.00 0.00 0.00 0.00 0.00 0.00 0.00 0.00 0.00 0.00 0.00 0.00 0.00
0.00 0.00 0.00 0.00 0.00 0.00 0.00 0.00 0.00 0.00 0.00 0.00 0.00 0.00 0.00 0.00 0.00 0.00 0.00 0.00 0.00 0.00 0.00 0.00 0.00 0.00 0.00 0.00 0.00 0.00 0.00 0.00 0.00 0.00 0.00 0.00 0.00 0.00 0.01 0.00 0.00 0.00 0.00
0.00 0.00 0.00 0.00 0.00 0.00 0.00 0.00 0.00 0.00 0.00 0.00 0.00 0.00 0.00 0.00 0.00 0.00 0.00 0.00 0.00 0.00 0.00 0.00 0.00 0.00 0.00 0.00 0.00 0.00 0.00 0.00 0.00 0.00 0.00 0.00 0.00 0.00 0.00 0.01 0.00 0.00 0.00
0.00 0.01 0.01 0.00 0.01 0.02 0.01 0.00 0.00 0.00 0.00 0.00 0.00 0.00 0.00 0.00 0.00 0.00 0.00 0.00 0.00 0.00 0.00 0.00 0.00 0.00 0.00 0.00 0.00 0.00 0.00 0.00 0.00 0.00 0.00 0.00 0.00 0.00 0.00 0.01 0.01 0.00 0.00
0.00 0.01 0.00 0.00 0.02 0.02 0.02 0.00 0.00 0.00 0.00 0.00 0.00 0.00 0.00 0.00 0.00 0.00 0.00 0.00 0.00 0.00 0.00 0.00 0.00 0.00 0.00 0.00 0.00 0.00 0.00 0.00 0.00 0.00 0.00 0.00 0.00 0.00 0.00 0.00 0.00 0.00 0.00
0.00 0.00 0.00 0.00 0.02 0.02 0.00 0.00 0.00 0.00 0.00 0.00 0.00 0.01 0.02 0.02 0.00 0.00 0.00 0.00 0.00 0.00 0.00 0.00 0.00 0.00 0.00 0.00 0.00 0.00 0.00 0.00 0.00 0.00 0.00 0.00 0.00 0.00 0.00 0.00 0.00 0.00 0.00
0.00 0.00 0.00 0.00 0.01 0.01 0.00 0.00 0.00 0.00 0.00 0.01 0.02 0.03 0.03 0.02 0.00 0.00 0.00 0.00 0.00 0.00 0.00 0.00 0.00 0.00 0.00 0.00 0.00 0.00 0.00 0.00 0.00 0.00 0.00 0.00 0.00 0.00 0.00 0.00 0.00 0.00 0.00
0.00 0.00 0.00 0.00 0.00 0.02 0.01 0.00 0.00 0.00 0.01 0.01 0.01 0.01 0.01 0.00 0.00 0.00 0.00 0.00 0.00 0.00 0.00 0.00 0.00 0.00 0.00 0.00 0.00 0.00 0.00 0.00 0.00 0.00 0.00 0.00 0.00 0.00 0.00 0.00 0.00 0.00 0.00
0.00 0.00 0.00 0.00 0.01 0.03 0.00 0.00 0.00 0.00 0.00 0.00 0.00 0.00 0.00 0.00 0.00 0.00 0.00 0.00 0.00 0.00 0.00 0.00 0.00 0.00 0.00 0.00 0.00 0.00 0.00 0.00 0.00 0.00 0.00 0.00 0.00 0.00 0.00 0.00 0.00 0.00 0.00
0.00 0.00 0.00 0.00 0.01 0.01 0.00 0.00 0.00 0.00 0.01 0.02 0.00 0.00 0.00 0.00 0.00 0.00 0.00 0.00 0.00 0.00 0.00 0.00 0.00 0.00 0.00 0.00 0.00 0.00 0.00 0.00 0.00 0.00 0.00 0.00 0.00 0.00 0.00 0.00 0.00 0.00 0.00
0.00 0.00 0.00 0.00 0.00 0.00 0.00 0.00 0.00 0.00 0.04 0.03 0.01 0.00 0.00 0.00 0.00 0.00 0.00 0.00 0.00 0.00 0.00 0.00 0.00 0.00 0.00 0.00 0.00 0.00 0.00 0.00 0.00 0.00 0.00 0.00 0.00 0.00 0.00 0.00 0.00 0.00 0.00
0.00 0.00 0.00 0.00 0.00 0.00 0.00 0.00 0.00 0.00 0.05 0.07 0.06 0.02 0.02 0.01 0.00 0.00 0.00 0.00 0.00 0.00 0.00 0.00 0.00 0.00 0.00 0.00 0.00 0.00 0.00 0.00 0.00 0.00 0.00 0.00 0.00 0.00 0.00 0.00 0.00 0.00 0.00
0.00 0.00 0.00 0.00 0.00 0.00 0.00 0.01 0.01 0.01 0.04 0.04 0.02 0.02 0.03 0.03 0.01 0.00 0.00 0.00 0.00 0.00 0.00 0.00 0.00 0.00 0.00 0.00 0.00 0.00 0.00 0.00 0.00 0.00 0.00 0.00 0.00 0.00 0.00 0.00 0.00 0.00 0.00
0.00 0.00 0.00 0.00 0.00 0.04 0.11 0.15 0.04 0.04 0.05 0.06 0.03 0.01 0.01 0.01 0.02 0.01 0.00 0.00 0.00 0.00 0.00 0.00 0.00 0.00 0.00 0.00 0.00 0.00 0.00 0.00 0.00 0.00 0.00 0.00 0.00 0.00 0.00 0.00 0.00 0.00 0.00
MSLP
1011.97 1013.28 1014.57 1014.75 1014.95 1015.33 1015.75 1016.16 1016.46 1016.79 1017.16 1017.56 1018.02 1018.31 1018.57 1018.75 1019.04 1019.34 1019.58 1019.79 1019.77 1019.78 1019.94 1020.08 1020.28 1020.34 1020.60 1020.99 1021.27 1021.40 1021.57 1021.74 1021.44 1021.26 1021.15 1021.18 1021.33 1021.31 1021.21 1020.96 1020.20 1020.59 1020.87
1012.04 1013.29 1014.67 1014.92 1015.25 1015.45 1016.00 1016.48 1016.77 1017.20 1017.52 1018.00 1018.37 1018.70 1018.90 1019.16 1019.29 1019.49 1019.81 1019.93 1019.95 1020.14 1020.41 1020.46 1020.75 1020.87 1021.11 1021.59 1021.76 1022.07 1021.93 1022.12 1021.76 1021.42 1021.21 1021.41 1021.72 1021.79 1021.81 1021.78 1021.59 1021.42 1021.38
1012.30 1013.19 1014.51 1015.03 1015.63 1015.78 1016.00 1016.65 1017.17 1017.61 1017.89 1018.19 1018.58 1018.90 1019.14 1019.47 1019.59 1019.78 1020.00 1020.15 1020.23 1020.37 1020.60 1020.83 1021.25 1021.53 1021.78 1021.76 1021.94 1022.15 1022.16 1022.24 1022.16 1021.61 1021.16 1021.03 1021.83 1022.19 1022.41 1022.28 1022.25 1021.99 1021.96
1012.68 1013.17 1014.15 1015.26 1015.59 1016.06 1016.34 1016.90 1017.41 1017.87 1018.37 1018.64 1018.97 1019.11 1019.42 1019.73 1019.94 1020.03 1020.33 1020.61 1020.60 1020.64 1020.84 1021.17 1021.55 1021.80 1022.10 1022.12 1022.19 1022.40 1022.51 1022.45 1022.25 1021.67 1021.15 1021.34 1021.97 1022.74 1022.71 1022.71 1022.64 1022.36 1022.35
1013.14 1013.50 1014.25 1015.48 1015.77 1016.32 1016.73 1017.12 1017.69 1018.16 1018.75 1018.94 1019.19 1019.33 1019.63 1019.95 1020.28 1020.41 1020.55 1020.89 1020.94 1021.07 1021.27 1021.69 1021.94 1022.17 1022.43 1022.35 1022.61 1022.83 1022.96 1022.66 1022.33 1021.66 1021.73 1022.01 1022.35 1023.23 1023.13 1022.98 1022.76 1022.86 1023.07
1013.50 1013.54 1015.07 1015.77 1016.11 1016.52 1017.03 1017.43 1017.94 1018.34 1018.92 1019.17 1019.69 1019.36 1019.93 1020.31 1020.67 1020.76 1020.88 1021.23 1021.39 1021.47 1021.83 1022.19 1022.48 1022.65 1022.80 1022.90 1023.08 1023.29 1023.22 1022.82 1022.30 1021.98 1021.93 1022.84 1023.23 1023.87 1023.73 1023.67 1023.58 1023.36 1023.22
1013.79 1014.02 1015.05 1015.88 1016.41 1016.95 1017.40 1017.80 1018.32 1018.73 1018.90 1019.51 1020.02 1019.92 1020.34 1020.77 1021.04 1021.16 1021.39 1021.65 1021.82 1021.94 1022.16 1022.50 1022.70 1022.93 1023.17 1023.43 1023.43 1023.69 1023.45 1023.04 1022.07 1022.03 1022.26 1022.92 1023.82 1024.24 1023.99 1024.16 1024.10 1024.02 1024.05
1014.19 1014.65 1015.48 1016.30 1016.89 1017.36 1017.98 1018.53 1018.39 1019.15 1019.01 1019.74 1019.98 1020.43 1020.78 1021.12 1021.33 1021.66 1021.82 1022.14 1022.25 1022.36 1022.55 1022.83 1023.15 1023.51 1023.75 1023.90 1024.01 1024.01 1023.76 1023.44 1022.63 1022.61 1022.61 1023.31 1024.25 1024.49 1024.54 1024.67 1024.62 1024.47 1024.38
1014.79 1015.34 1016.18 1016.96 1017.60 1017.96 1018.40 1019.11 1018.80 1019.35 1019.48 1020.15 1020.25 1020.99 1021.26 1021.33 1021.72 1022.01 1022.31 1022.52 1022.73 1022.89 1023.08 1023.29 1023.55 1023.86 1024.23 1024.26 1024.53 1024.40 1024.30 1023.80 1023.11 1023.11 1022.92 1023.40 1024.64 1024.65 1024.77 1024.91 1024.89 1024.81 1024.76
1015.61 1016.02 1016.51 1017.45 1018.17 1018.40 1018.65 1019.54 1019.56 1019.68 1020.35 1020.45 1020.63 1021.64 1021.65 1021.84 1022.25 1022.36 1022.66 1022.88 1023.25 1023.30 1023.43 1023.68 1023.99 1024.34 1024.61 1024.71 1024.68 1024.74 1024.63 1023.98 1023.40 1023.15 1023.23 1024.36 1024.90 1024.96 1025.11 1025.23 1025.08 1025.10 1025.18
1016.37 1016.59 1017.11 1017.74 1019.01 1019.28 1019.49 1019.71 1019.78 1019.77 1021.21 1020.99 1021.19 1021.91 1021.86 1021.80 1022.16 1022.21 1022.98 1023.40 1023.53 1023.80 1023.87 1024.24 1024.49 1024.62 1024.80 1024.90 1024.99 1024.93 1024.37 1023.93 1023.55 1023.54 1023.54 1025.15 1025.12 1025.29 1025.38 1025.60 1025.58 1025.47 1025.61
1017.38 1017.64 1017.75 1018.52 1018.98 1019.53 1020.19 1019.15 1019.87 1020.19 1020.70 1021.13 1021.48 1021.55 1021.43 1022.03 1022.06 1022.38 1023.52 1023.79 1023.96 1024.17 1024.44 1024.68 1024.72 1024.65 1024.19 1023.98 1024.49 1024.60 1024.29 1024.30 1023.84 1023.89 1024.31 1025.34 1025.25 1025.37 1025.67 1025.89 1026.08 1025.85 1025.86
1017.96 1018.46 1018.62 1018.82 1019.55 1019.57 1020.77 1020.14 1020.67 1020.76 1021.19 1021.92 1022.05 1021.97 1022.20 1022.36 1022.75 1022.66 1023.33 1023.63 1023.91 1024.39 1024.44 1024.32 1024.29 1024.25 1024.43 1024.33 1024.67 1024.77 1024.87 1024.37 1024.29 1024.09 1025.24 1025.78 1025.55 1025.51 1025.69 1025.88 1026.10 1026.19 1026.21
1018.56 1019.17 1019.39 1019.74 1020.40 1020.86 1021.07 1020.53 1020.52 1020.95 1021.46 1021.75 1021.90 1022.29 1022.48 1022.29 1022.54 1022.62 1022.73 1023.26 1023.66 1024.00 1024.20 1024.24 1024.57 1024.92 1025.14 1025.06 1025.15 1025.14 1025.32 1024.90 1024.66 1024.47 1025.50 1026.18 1025.93 1025.70 1025.69 1025.89 1026.11 1026.38 1026.52
1018.89 1019.47 1020.06 1020.23 1020.47 1020.69 1020.31 1020.39 1020.65 1020.92 1021.43 1021.71 1021.89 1021.88 1021.88 1022.11 1022.38 1022.61 1023.01 1023.11 1023.39 1023.91 1024.08 1024.24 1024.68 1024.90 1025.23 1025.31 1025.39 1025.34 1025.41 1025.47 1025.15 1024.92 1024.92 1026.11 1026.21 1025.90 1025.73 1025.88 1026.08 1026.39 1026.67
1019.38 1019.70 1020.11 1020.25 1020.00 1019.95 1020.08 1020.75 1021.01 1021.43 1021.54 1021.73 1021.76 1021.78 1022.22 1022.15 1022.51 1022.92 1023.12 1023.29 1023.58 1023.79 1023.89 1024.30 1024.54 1024.74 1025.12 1025.29 1025.74 1025.74 1025.68 1025.43 1025.37 1025.54 1025.14 1025.41 1026.29 1026.09 1025.80 1025.85 1026.14 1026.40 1026.59
1019.14 1019.89 1020.18 1020.29 1020.15 1020.49 1020.68 1020.75 1020.95 1021.18 1021.46 1021.39 1021.46 1022.29 1022.12 1022.22 1022.81 1022.75 1022.81 1023.36 1023.69 1024.00 1024.41 1024.87 1024.89 1024.92 1025.23 1025.41 1025.77 1025.82 1025.71 1025.80 1025.77 1025.65 1025.49 1025.38 1025.46 1026.40 1026.28 1026.23 1026.31 1026.49 1026.63
1018.49 1019.15 1019.65 1019.91 1020.23 1020.47 1020.59 1020.51 1020.68 1020.93 1021.15 1021.02 1021.58 1021.90 1022.14 1022.35 1022.60 1022.76 1023.00 1023.31 1023.80 1024.18 1024.31 1024.38 1024.58 1024.81 1025.21 1025.39 1025.57 1025.66 1025.67 1026.01 1026.14 1026.04 1025.79 1025.63 1025.69 1025.48 1026.70 1027.05 1026.97 1027.09 1027.13
1018.10 1018.65 1019.02 1019.33 1019.54 1019.89 1020.35 1020.59 1020.93 1020.90 1021.18 1020.92 1021.81 1021.98 1022.31 1022.46 1022.47 1022.77 1022.72 1023.42 1024.03 1024.24 1024.38 1024.53 1024.72 1024.96 1025.20 1025.49 1025.50 1025.81 1026.11 1026.13 1026.29 1026.05 1026.04 1026.18 1026.32 1025.98 1025.89 1027.51 1027.48 1027.53 1027.56
1017.76 1018.42 1018.87 1019.24 1019.48 1019.82 1019.89 1020.41 1020.30 1020.67 1020.80 1020.99 1021.29 1021.41 1022.09 1022.11 1022.45 1022.62 1022.89 1023.59 1023.92 1023.98 1024.27 1024.37 1024.85 1025.36 1025.36 1025.42 1025.47 1025.90 1026.09 1026.19 1026.16 1026.12 1026.14 1026.22 1026.31 1026.45 1026.39 1026.60 1026.61 1026.84 1027.70
1017.41 1018.06 1018.34 1018.68 1018.95 1019.48 1019.59 1019.80 1019.82 1020.26 1020.69 1020.83 1021.04 1021.31 1021.91 1021.90 1022.34 1022.56 1022.93 1023.61 1023.62 1023.60 1024.19 1024.70 1024.92 1025.17 1025.38 1025.85 1025.56 1024.98 1025.67 1026.32 1026.43 1026.15 1026.17 1026.11 1026.45 1026.62 1026.67 1026.64 1026.59 1026.48 1026.78
1016.29 1017.02 1017.56 1017.85 1018.38 1018.86 1018.85 1019.21 1019.41 1020.00 1020.37 1020.55 1020.92 1021.44 1021.79 1021.98 1022.32 1022.63 1022.87 1022.96 1023.32 1023.72 1024.59 1024.83 1024.88 1025.10 1025.42 1025.94 1025.39 1024.77 1024.20 1024.82 1025.62 1026.07 1026.11 1026.32 1026.63 1026.50 1026.45 1026.81 1026.85 1026.94 1026.91
1015.43 1016.06 1016.54 1016.96 1017.38 1017.97 1018.20 1018.75 1019.38 1019.88 1020.89 1020.84 1020.88 1021.25 1021.52 1022.02 1022.10 1022.50 1022.83 1022.77 1023.30 1023.77 1024.22 1024.60 1024.89 1025.13 1024.91 1025.52 1025.65 1025.06 1024.03 1023.60 1024.27 1024.66 1025.96 1025.99 1026.36 1026.33 1026.32 1026.48 1026.75 1026.91 1026.98
1014.32 1015.10 1015.74 1016.20 1016.62 1017.14 1017.87 1018.14 1018.80 1019.08 1019.48 1020.16 1020.76 1020.93 1021.58 1022.07 1022.28 1022.52 1022.79 1023.27 1023.36 1023.46 1024.09 1024.58 1024.81 1024.93 1025.06 1024.75 1025.04 1025.19 1025.21 1024.95 1024.28 1023.87 1024.73 1025.38 1025.91 1026.01 1025.98 1026.29 1026.18 1026.47 1026.77
1013.28 1014.02 1014.76 1015.36 1015.83 1016.43 1017.31 1017.94 1018.32 1018.50 1018.75 1019.67 1020.58 1021.01 1021.65 1022.18 1022.51 1022.73 1023.20 1023.34 1023.39 1023.45 1024.08 1024.62 1025.02 1025.22 1025.09 1025.18 1024.37 1024.42 1024.86 1024.91 1025.10 1024.91 1024.04 1024.03 1024.61 1025.05 1025.35 1025.76 1025.89 1026.09 1026.19
1012.18 1013.06 1013.81 1014.42 1015.43 1016.67 1017.77 1018.52 1018.73 1018.58 1018.82 1019.71 1020.29 1020.64 1021.22 1021.79 1022.36 1023.01 1023.31 1023.41 1023.44 1023.61 1024.18 1024.75 1025.25 1025.09 1025.28 1024.87 1024.45 1024.64 1024.48 1024.43 1024.27 1024.45 1024.38 1024.27 1024.32 1024.71 1025.23 1025.52 1025.65 1025.74 1025.93
Thickness
5725 5718 5710 5710 5710 5708 5705 5703 5702 5700 5698 5695 5692 5690 5687 5686 5683 5680 5678 5675 5675 5675 5673 5672 5670 5671 5669 5665 5663 5661 5658 5655 5657 5659 5659 5657 5654 5654 5654 5655 5659 5654 5653
5722 5713 5705 5704 5702 5703 5698 5695 5694 5692 5691 5688 5686 5683 5682 5680 5678 5676 5672 5672 5671 5669 5666 5666 5664 5664 5662 5658 5656 5652 5654 5651 5655 5656 5656 5653 5649 5647 5647 5646 5647 5647 5647
5714 5710 5700 5699 5694 5695 5694 5689 5686 5684 5683 5683 5681 5678 5676 5673 5672 5670 5669 5667 5666 5664 5662 5660 5657 5655 5654 5656 5654 5651 5651 5650 5647 5651 5652 5652 5645 5642 5638 5639 5638 5641 5640
5700 5704 5698 5692 5690 5687 5686 5683 5679 5677 5675 5675 5672 5672 5670 5667 5666 5666 5663 5660 5660 5660 5658 5654 5651 5651 5650 5651 5651 5648 5647 5645 5644 5646 5647 5646 5640 5634 5633 5633 5633 5635 5635
5697 5698 5692 5685 5684 5680 5678 5676 5673 5671 5667 5668 5666 5666 5664 5661 5659 5659 5659 5655 5653 5653 5651 5647 5646 5647 5646 5648 5645 5642 5639 5640 5640 5644 5641 5637 5634 5627 5628 5628 5629 5629 5626
5692 5693 5682 5677 5676 5674 5671 5670 5668 5666 5662 5662 5658 5662 5658 5655 5652 5652 5652 5648 5647 5646 5642 5640 5640 5641 5641 5640 5638 5635 5633 5635 5636 5636 5637 5629 5625 5619 5620 5620 5620 5621 5622
5684 5684 5677 5671 5667 5665 5665 5663 5659 5658 5658 5654 5650 5653 5651 5647 5645 5645 5642 5641 5640 5640 5639 5637 5638 5638 5636 5633 5633 5629 5630 5630 5633 5633 5630 5625 5616 5612 5615 5612 5612 5612 5610
5677 5674 5668 5662 5659 5658 5654 5650 5653 5650 5653 5648 5647 5645 5644 5641 5639 5636 5635 5634 5634 5634 5634 5634 5633 5630 5627 5626 5624 5623 5625 5625 5626 5625 5625 5619 5611 5607 5605 5603 5603 5603 5603
5669 5663 5658 5655 5649 5647 5646 5643 5646 5643 5643 5639 5640 5636 5636 5636 5633 5630 5628 5628 5626 5626 5627 5627 5627 5624 5620 5620 5616 5616 5617 5619 5620 5619 5618 5613 5605 5603 5600 5597 5596 5595 5594
5657 5653 5650 5647 5641 5638 5635 5629 5632 5634 5630 5631 5631 5625 5627 5627 5624 5624 5622 5621 5619 5621 5623 5623 5621 5617 5614 5613 5613 5612 5610 5614 5614 5614 5612 5602 5596 5594 5592 5589 5589 5587 5584
5646 5645 5642 5638 5627 5624 5624 5621 5624 5626 5614 5618 5620 5617 5619 5619 5617 5620 5619 5616 5617 5616 5618 5615 5613 5611 5609 5609 5608 5606 5607 5606 5609 5607 5606 5594 5591 5586 5583 5578 5577 5576 5572
5633 5632 5631 5627 5623 5619 5611 5620 5613 5611 5612 5610 5610 5613 5615 5612 5615 5616 5612 5614 5613 5612 5612 5609 5608 5607 5610 5609 5604 5603 5602 5601 5604 5600 5595 5586 5583 5579 5574 5569 5565 5565 5563
5624 5620 5618 5616 5611 5609 5600 5605 5604 5605 5607 5601 5602 5605 5605 5606 5608 5612 5609 5608 5608 5605 5603 5607 5607 5604 5604 5604 5599 5597 5594 5596 5594 5593 5584 5578 5575 5572 5568 5564 5559 5555 5552
5615 5610 5608 5605 5601 5598 5598 5604 5603 5600 5598 5598 5600 5601 5602 5606 5608 5612 5613 5609 5607 5604 5604 5604 5601 5599 5595 5596 5593 5591 5587 5587 5587 5585 5576 5569 5567 5564 5561 5557 5552 5547 5542
5604 5600 5596 5594 5593 5593 5600 5599 5597 5596 5595 5596 5599 5601 5607 5607 5610 5610 5609 5608 5607 5603 5602 5602 5597 5595 5591 5588 5586 5585 5581 5578 5578 5576 5572 5562 5557 5555 5551 5547 5543 5538 5533
5592 5592 5590 5589 5592 5594 5594 5590 5592 5590 5591 5594 5598 5604 5603 5606 5609 5605 5606 5605 5603 5601 5602 5597 5595 5592 5586 5583 5578 5576 5573 5572 5569 5563 5561 5556 5547 5544 5541 5537 5532 5528 5524
5593 5585 5584 5585 5586 5586 5587 5589 5591 5591 5594 5598 5601 5597 5603 5606 5602 5606 5606 5601 5600 5599 5595 5591 5589 5587 5581 5578 5573 5569 5566 5561 5556 5554 5549 5546 5542 5533 5530 5526 5522 5517 5514
5602 5597 5593 5592 5587 5593 5592 5593 5595 5598 5599 5602 5600 5601 5603 5602 5603 5603 5602 5600 5596 5594 5592 5590 5586 5583 5576 5571 5567 5563 5558 5550 5545 5542 5539 5536 5531 5528 5519 5512 5508 5505 5502
5608 5605 5602 5600 5598 5596 5594 5596 5596 5599 5600 5603 5599 5599 5601 5600 5604 5600 5602 5598 5593 5589 5587 5584 5581 5575 5569 5563 5560 5553 5546 5541 5536 5534 5529 5524 5518 5516 5512 5501 5498 5494 5490
5613 5608 5606 5603 5600 5599 5601 5599 5603 5602 5602 5604 5603 5606 5600 5601 5601 5599 5599 5592 5587 5587 5584 5580 5572 5563 5560 5556 5551 5543 5538 5533 5528 5523 5518 5513 5508 5503 5499 5494 5491 5486 5478
5617 5612 5611 5609 5608 5604 5604 5604 5607 5602 5602 5604 5604 5603 5599 5601 5599 5598 5593 5588 5586 5584 5577 5568 5562 5557 5551 5543 5540 5542 5533 5523 5517 5512 5508 5503 5496 5491 5487 5482 5478 5473 5466
5627 5622 5618 5617 5614 5611 5613 5610 5608 5604 5604 5604 5602 5600 5598 5599 5595 5592 5588 5586 5581 5576 5564 5559 5554 5549 5542 5533 5533 5533 5531 5522 5515 5504 5498 5491 5485 5480 5476 5469 5463 5456 5449
5632 5628 5626 5625 5622 5618 5618 5612 5606 5603 5596 5599 5601 5600 5598 5594 5591 5587 5582 5581 5575 5566 5559 5552 5546 5540 5538 5528 5521 5520 5522 5523 5511 5502 5489 5482 5474 5468 5463 5456 5448 5440 5434
5640 5636 5632 5629 5627 5624 5617 5615 5609 5608 5605 5602 5598 5598 5592 5587 5583 5579 5575 5568 5565 5561 5552 5543 5538 5533 5527 5524 5516 5509 5504 5500 5501 5496 5485 5476 5465 5457 5450 5441 5435 5427 5418
5649 5644 5640 5636 5633 5629 5621 5616 5611 5611 5611 5603 5596 5592 5586 5580 5575 5570 5564 5560 5556 5552 5543 5534 5528 5521 5517 5509 5510 5505 5497 5492 5483 5478 5478 5470 5459 5450 5439 5429 5420 5410 5402
5656 5649 5643 5640 5631 5621 5611 5604 5602 5606 5604 5595 5591 5589 5585 5578 5570 5563 5557 5553 5548 5543 5534 5525 5516 5511 5504 5502 5500 5493 5489 5484 5479 5471 5464 5457 5448 5436 5424 5412 5403 5394 5383